VK4CWL-13 Weather Reports


Display with metric or nautical units.
time (UTC)temp
F
wind
direction
speed
MPH
gust
MPH
rain 1hr
in
rain 24hr
in
rain mn
in
humidity
%
barometer
mb
20260905224158 69 22 5.0 7.0 0.00 0.00 0.00 59 1020.5
20260905223656 69 0 5.0 8.0 0.00 0.00 0.00 60 1020.7
20260905223153 68 337 2.0 7.0 0.00 0.00 0.00 61 1020.8
20260905222651 68 0 1.0 3.0 0.00 0.00 0.00 62 1020.7
20260905222148 67 225 2.0 4.0 0.00 0.00 0.00 64 1020.6
20260905221647 66 67 4.0 4.0 0.00 0.00 0.00 65 1020.7
20260905221147 65 0 2.0 3.0 0.00 0.00 0.00 66 1020.7
20260905220642 64 45 1.0 3.0 0.00 0.00 0.00 67 1020.6
20260905220144 64 45 1.0 3.0 0.00 0.00 0.00 69 1020.7
20260905215637 63 45 3.0 4.0 0.00 0.00 0.00 70 1020.7
20260905215135 62 45 2.0 4.0 0.00 0.00 0.00 71 1020.5
20260905214634 61 0 1.0 4.0 0.00 0.00 0.00 72 1020.4
20260905214130 60 45 3.0 4.0 0.00 0.00 0.00 73 1020.3
20260905213628 60 45 3.0 4.0 0.00 0.00 0.00 74 1020.3
20260905213125 59 0 3.0 4.0 0.00 0.00 0.00 74 1020.3
20260905212625 58 11 2.0 3.0 0.00 0.00 0.00 73 1020.3
20260905212121 58 45 1.0 3.0 0.00 0.00 0.00 75 1020.4
20260905211620 57 22 2.0 3.0 0.00 0.00 0.00 75 1020.2
20260905211117 57 45 1.0 1.0 0.00 0.00 0.00 72 1020.1
20260905210616 56 78 1.0 1.0 0.00 0.00 0.00 72 1020.2
20260905210115 55 78 0.0 1.0 0.00 0.00 0.00 72 1020.1
20260905205612 55 90 0.0 0.0 0.00 0.00 0.00 72 1020.1
20260905205108 54 90 0.0 0.0 0.00 0.00 0.00 72 1020.2
20260905204605 53 135 0.0 0.0 0.00 0.00 0.00 73 1020.1
20260905204108 53 135 0.0 0.0 0.00 0.00 0.00 71 1020.0
20260905203602 53 135 0.0 1.0 0.00 0.00 0.00 71 1020.0
20260905203101 52 78 1.0 1.0 0.00 0.00 0.00 72 1020.0
20260905202556 52 135 0.0 0.0 0.00 0.00 0.00 72 1019.9
20260905202104 52 135 0.0 0.0 0.00 0.00 0.00 70 1019.7
20260905201552 52 225 0.0 0.0 0.00 0.00 0.00 70 1019.6
20260905201049 52 315 0.0 0.0 0.00 0.00 0.00 69 1019.5
20260905200546 53 315 0.0 0.0 0.00 0.00 0.00 69 1019.4
20260905200045 53 180 0.0 0.0 0.00 0.00 0.00 69 1019.4
20260905195543 53 180 0.0 0.0 0.00 0.00 0.00 69 1019.4
20260905195044 53 315 0.0 1.0 0.00 0.00 0.00 68 1019.2
20260905194538 54 315 0.0 0.0 0.00 0.00 0.00 68 1019.2
20260905194035 54 315 0.0 0.0 0.00 0.00 0.00 68 1019.2
20260905193533 54 315 0.0 0.0 0.00 0.00 0.00 68 1019.0
20260905193031 55 315 0.0 0.0 0.00 0.00 0.00 68 1018.9
20260905192529 55 225 0.0 0.0 0.00 0.00 0.00 68 1019.0
20260905192028 55 315 0.0 0.0 0.00 0.00 0.00 69 1019.0
20260905191523 56 270 0.0 1.0 0.00 0.00 0.00 71 1019.0
20260905191021 56 225 1.0 2.0 0.00 0.00 0.00 72 1019.0
20260905190519 55 157 2.0 2.0 0.00 0.00 0.00 71 1019.0
20260905190017 56 180 1.0 2.0 0.00 0.00 0.00 70 1019.0
20260905185517 55 180 1.0 3.0 0.00 0.00 0.00 72 1019.0
20260905185014 55 180 3.0 3.0 0.00 0.00 0.00 73 1018.9
20260905184510 55 180 3.0 3.0 0.00 0.00 0.00 72 1018.9
20260905184008 55 180 2.0 3.0 0.00 0.00 0.00 68 1018.7
20260905183506 55 135 2.0 3.0 0.00 0.00 0.00 68 1018.8
20260905183003 55 180 1.0 2.0 0.00 0.00 0.00 68 1018.8
20260905182500 56 225 1.0 2.0 0.00 0.00 0.00 66 1018.7
20260905181456 56 225 1.0 1.0 0.00 0.00 0.00 66 1018.7
20260905180957 56 270 1.0 3.0 0.00 0.00 0.00 65 1018.6
20260905180452 56 270 1.0 2.0 0.00 0.00 0.00 65 1018.8
20260905175950 56 157 2.0 3.0 0.00 0.00 0.00 64 1018.5
20260905175449 56 225 1.0 1.0 0.00 0.00 0.00 64 1018.6
20260905174945 57 225 1.0 2.0 0.00 0.00 0.00 65 1018.6
20260905174445 56 213 1.0 3.0 0.00 0.00 0.00 66 1018.3
20260905173940 56 180 2.0 2.0 0.00 0.00 0.00 64 1018.3
20260905173438 57 180 2.0 2.0 0.00 0.00 0.00 61 1018.1
20260905172935 57 180 1.0 1.0 0.00 0.00 0.00 63 1018.1
20260905172433 57 157 1.0 3.0 0.00 0.00 0.00 64 1018.2
20260905171931 57 180 2.0 3.0 0.00 0.00 0.00 64 1018.3
20260905171429 57 180 1.0 2.0 0.00 0.00 0.00 62 1018.1
20260905170927 57 225 0.0 0.0 0.00 0.00 0.00 59 1018.0
20260905170424 57 225 0.0 0.0 0.00 0.00 0.00 59 1018.0
20260905165922 58 180 1.0 1.0 0.00 0.00 0.00 60 1018.0
20260905165420 58 180 1.0 1.0 0.00 0.00 0.00 60 1018.1
20260905164917 58 180 0.0 1.0 0.00 0.00 0.00 59 1018.2
20260905164423 58 180 0.0 1.0 0.00 0.00 0.00 60 1018.2
20260905163912 58 180 1.0 1.0 0.00 0.00 0.00 60 1018.2
20260905163410 58 135 1.0 1.0 0.00 0.00 0.00 59 1018.2
20260905162908 58 180 1.0 2.0 0.00 0.00 0.00 59 1018.1
20260905162406 58 191 1.0 3.0 0.00 0.00 0.00 58 1018.1
20260905161911 59 168 2.0 2.0 0.00 0.00 0.00 56 1018.0
20260905161401 59 135 0.0 0.0 0.00 0.00 0.00 57 1018.2
20260905160859 60 225 0.0 1.0 0.00 0.00 0.00 56 1018.2
20260905160357 60 180 0.0 1.0 0.00 0.00 0.00 55 1018.2
20260905155854 60 180 1.0 2.0 0.00 0.00 0.00 55 1018.3
20260905155352 61 168 1.0 1.0 0.00 0.00 0.00 54 1018.2
20260905154850 61 225 0.0 1.0 0.00 0.00 0.00 54 1018.3
20260905154347 61 225 0.0 3.0 0.00 0.00 0.00 54 1018.3
20260905153845 61 247 2.0 3.0 0.00 0.00 0.00 55 1018.2
20260905153343 61 270 3.0 3.0 0.00 0.00 0.00 54 1018.2
20260905152842 61 225 2.0 2.0 0.00 0.00 0.00 54 1018.1
20260905152339 62 225 0.0 0.0 0.00 0.00 0.00 53 1018.1
20260905151836 62 315 0.0 0.0 0.00 0.00 0.00 53 1018.2
20260905151334 62 315 0.0 0.0 0.00 0.00 0.00 53 1018.1
20260905150831 62 0 0.0 0.0 0.00 0.00 0.00 52 1018.1
20260905150333 62 90 0.0 0.0 0.00 0.00 0.00 51 1018.2
20260905145829 62 45 1.0 3.0 0.00 0.00 0.00 52 1018.3
20260905145326 62 22 1.0 3.0 0.00 0.00 0.00 52 1018.3
20260905144822 63 315 1.0 3.0 0.00 0.00 0.00 51 1018.3
20260905144320 63 0 2.0 2.0 0.00 0.00 0.00 50 1018.3
20260905143818 63 0 1.0 1.0 0.00 0.00 0.00 49 1018.3
20260905143316 63 11 0.0 1.0 0.00 0.00 0.00 49 1018.4
20260905142813 63 45 2.0 2.0 0.00 0.00 0.00 49 1018.6
20260905142311 64 45 1.0 2.0 0.00 0.00 0.00 48 1018.5
20260905141809 64 45 1.0 2.0 0.00 0.00 0.00 48 1018.5
20260905141308 64 45 1.0 1.0 0.00 0.00 0.00 47 1018.6
20260905140804 64 0 1.0 2.0 0.00 0.00 0.00 47 1018.7
20260905140302 65 45 1.0 2.0 0.00 0.00 0.00 47 1018.7
20260905135759 65 45 1.0 2.0 0.00 0.00 0.00 46 1018.7
20260905134755 65 45 2.0 2.0 0.00 0.00 0.00 46 1018.7
20260905134253 65 22 2.0 3.0 0.00 0.00 0.00 46 1018.7
20260905133751 65 45 2.0 2.0 0.00 0.00 0.00 45 1018.8
20260905132746 66 0 0.0 1.0 0.00 0.00 0.00 44 1018.8
20260905132243 66 0 1.0 2.0 0.00 0.00 0.00 44 1018.8
20260905131741 66 90 0.0 2.0 0.00 0.00 0.00 44 1018.8
20260905131239 66 90 1.0 1.0 0.00 0.00 0.00 44 1018.8
20260905130736 67 45 0.0 2.0 0.00 0.00 0.00 43 1018.9
20260905130236 67 11 1.0 3.0 0.00 0.00 0.00 43 1018.9
20260905125733 67 135 1.0 3.0 0.00 0.00 0.00 43 1018.8
20260905125230 68 90 3.0 3.0 0.00 0.00 0.00 43 1018.8
20260905124728 68 0 1.0 2.0 0.00 0.00 0.00 43 1018.8
20260905124225 68 0 2.0 3.0 0.00 0.00 0.00 43 1018.8
20260905123723 68 0 4.0 4.0 0.00 0.00 0.00 44 1018.8
20260905123220 68 90 3.0 3.0 0.00 0.00 0.00 42 1018.8
20260905122213 68 33 2.0 5.0 0.00 0.00 0.00 42 1018.8
20260905121710 69 67 3.0 4.0 0.00 0.00 0.00 41 1018.8
20260905121208 69 135 5.0 5.0 0.00 0.00 0.00 40 1018.8
20260905120706 70 315 3.0 5.0 0.00 0.00 0.00 41 1018.7
20260905120204 70 337 3.0 5.0 0.00 0.00 0.00 41 1018.6
20260905115702 70 337 3.0 4.0 0.00 0.00 0.00 40 1018.6
20260905115200 70 337 3.0 3.0 0.00 0.00 0.00 40 1018.5
20260905114657 70 315 1.0 2.0 0.00 0.00 0.00 40 1018.6
20260905114154 70 0 0.0 1.0 0.00 0.00 0.00 39 1018.5
20260905113652 70 45 0.0 1.0 0.00 0.00 0.00 39 1018.7
20260905113150 70 45 0.0 2.0 0.00 0.00 0.00 39 1018.6
20260905112648 70 45 1.0 1.0 0.00 0.00 0.00 39 1018.7
20260905112145 70 0 1.0 2.0 0.00 0.00 0.00 39 1018.5
20260905111643 71 315 1.0 1.0 0.00 0.00 0.00 38 1018.4
20260905110639 71 45 0.0 1.0 0.00 0.00 0.00 38 1018.4
20260905110137 71 45 0.0 1.0 0.00 0.00 0.00 37 1018.3
20260905105634 71 0 0.0 0.0 0.00 0.00 0.00 37 1018.2
20260905105131 72 90 0.0 1.0 0.00 0.00 0.00 37 1018.2
20260905104629 72 22 1.0 1.0 0.00 0.00 0.00 36 1018.1
20260905104128 72 135 0.0 0.0 0.00 0.00 0.00 36 1018.0
20260905103625 72 315 0.0 1.0 0.00 0.00 0.00 36 1017.9
20260905103123 72 0 0.0 1.0 0.00 0.00 0.00 36 1017.9
20260905102620 72 45 1.0 1.0 0.00 0.00 0.00 35 1017.8
20260905102118 72 45 0.0 1.0 0.00 0.00 0.00 35 1017.8
20260905101616 72 0 0.0 2.0 0.00 0.00 0.00 35 1017.8
20260905101114 72 0 0.0 1.0 0.00 0.00 0.00 34 1017.7
20260905100611 73 45 0.0 0.0 0.00 0.00 0.00 34 1017.6
20260905100108 73 90 2.0 2.0 0.00 0.00 0.00 33 1017.6
20260905095606 74 270 0.0 0.0 0.00 0.00 0.00 33 1017.4
20260905095104 74 315 1.0 2.0 0.00 0.00 0.00 33 1017.5
20260905094603 74 270 1.0 2.0 0.00 0.00 0.00 32 1017.3
20260905094100 75 315 2.0 2.0 0.00 0.00 0.00 32 1017.2
20260905093557 75 135 0.0 1.0 0.00 0.00 0.00 32 1017.2
20260905093055 76 135 0.0 0.0 0.00 0.00 0.00 31 1017.0
20260905092554 76 180 0.0 0.0 0.00 0.00 0.00 31 1017.0
20260905092051 76 135 0.0 0.0 0.00 0.00 0.00 31 1016.9
20260905091548 76 135 0.0 1.0 0.00 0.00 0.00 31 1016.9
20260905091047 77 180 1.0 1.0 0.00 0.00 0.00 30 1016.9
20260905090545 77 90 1.0 1.0 0.00 0.00 0.00 30 1016.7
20260905090041 78 90 0.0 1.0 0.00 0.00 0.00 29 1016.7
20260905085539 78 90 1.0 1.0 0.00 0.00 0.00 29 1016.7
20260905085037 78 45 0.0 1.0 0.00 0.00 0.00 28 1016.6
20260905084535 79 90 0.0 1.0 0.00 0.00 0.00 28 1016.4
20260905084032 79 135 1.0 1.0 0.00 0.00 0.00 28 1016.5
20260905083530 80 90 1.0 1.0 0.00 0.00 0.00 27 1016.3
20260905083028 80 90 1.0 2.0 0.00 0.00 0.00 27 1016.2
20260905082525 81 90 0.0 2.0 0.00 0.00 0.00 26 1016.1
20260905082023 81 90 0.0 2.0 0.00 0.00 0.00 26 1016.1
20260905081520 82 90 2.0 2.0 0.00 0.00 0.00 25 1016.2
20260905081021 82 90 1.0 3.0 0.00 0.00 0.00 25 1016.0
20260905080516 83 78 2.0 3.0 0.00 0.00 0.00 24 1016.0
20260905080014 83 22 1.0 3.0 0.00 0.00 0.00 24 1016.1
20260905075512 84 45 2.0 3.0 0.00 0.00 0.00 23 1016.2
20260905075011 85 78 3.0 4.0 0.00 0.00 0.00 23 1016.2
20260905074511 85 90 1.0 3.0 0.00 0.00 0.00 23 1016.1
20260905074008 85 90 1.0 3.0 0.00 0.00 0.00 22 1016.1
20260905073506 86 67 3.0 3.0 0.00 0.00 0.00 22 1016.0
20260905073002 86 67 3.0 4.0 0.00 0.00 0.00 22 1016.0
20260905072459 87 45 3.0 5.0 0.00 0.00 0.00 21 1016.0
20260905071957 87 45 4.0 7.0 0.00 0.00 0.00 21 1015.9
20260905070954 88 90 3.0 6.0 0.00 0.00 0.00 20 1015.8
20260905070450 88 90 8.0 9.0 0.00 0.00 0.00 20 1015.8
20260905065949 88 90 4.0 5.0 0.00 0.00 0.00 20 1015.7
20260905064942 88 45 4.0 6.0 0.00 0.00 0.00 20 1015.7
20260905064438 88 22 4.0 9.0 0.00 0.00 0.00 20 1015.7
20260905063936 88 0 8.0 8.0 0.00 0.00 0.00 19 1015.7
20260905063434 89 45 4.0 7.0 0.00 0.00 0.00 20 1015.6
20260905062932 89 135 5.0 6.0 0.00 0.00 0.00 20 1015.5
20260905062430 89 90 3.0 9.0 0.00 0.00 0.00 20 1015.5
20260905061926 89 45 4.0 6.0 0.00 0.00 0.00 20 1015.6
20260905060919 89 22 6.0 6.0 0.00 0.00 0.00 19 1015.5
20260905060418 89 90 3.0 7.0 0.00 0.00 0.00 19 1015.5
20260905055915 89 157 1.0 6.0 0.00 0.00 0.00 19 1015.4
20260905055413 89 90 6.0 8.0 0.00 0.00 0.00 19 1015.5
20260905054909 89 78 6.0 8.0 0.00 0.00 0.00 19 1015.7
20260905054409 89 45 4.0 7.0 0.00 0.00 0.00 19 1015.7
20260905053906 89 45 4.0 15.0 0.00 0.00 0.00 19 1015.7
20260905053503 89 78 12.0 12.0 0.00 0.00 0.00 19 1015.6
20260905053141 89 45 4.0 12.0 0.00 0.00 0.00 19 1015.7
20260905052640 89 45 11.0 11.0 0.00 0.00 0.00 19 1015.8
20260905052138 89 67 6.0 7.0 0.00 0.00 0.00 19 1015.7
20260905051635 89 67 6.0 6.0 0.00 0.00 0.00 19 1015.7
20260905051132 89 11 4.0 10.0 0.00 0.00 0.00 19 1015.7
20260905050632 89 45 6.0 6.0 0.00 0.00 0.00 20 1015.9
20260905050126 89 135 2.0 14.0 0.00 0.00 0.00 20 1015.8
20260905045624 89 135 10.0 21.0 0.00 0.00 0.00 19 1015.9
20260905045524 89 90 21.0 21.0 0.00 0.00 0.00 19 1015.8
20260905045330 89 135 8.0 19.0 0.00 0.00 0.00 19 1015.8
20260905045228 89 90 19.0 19.0 0.00 0.00 0.00 19 1015.8
20260905044847 89 135 10.0 11.0 0.00 0.00 0.00 19 1015.8
20260905044744 89 135 0.0 3.0 0.00 0.00 0.00 21 1015.9
20260905044242 89 90 2.0 9.0 0.00 0.00 0.00 20 1016.0
20260905043741 89 180 1.0 8.0 0.00 0.00 0.00 20 1016.0
20260905043238 89 90 7.0 11.0 0.00 0.00 0.00 19 1016.1
20260905042734 89 90 9.0 26.0 0.00 0.00 0.00 19 1016.2
20260905042614 89 90 17.0 26.0 0.00 0.00 0.00 19 1016.2
20260905042512 89 90 26.0 26.0 0.00 0.00 0.00 19 1016.2
20260905042130 89 90 17.0 17.0 0.00 0.00 0.00 19 1016.4
20260905041915 89 45 16.0 17.0 0.00 0.00 0.00 19 1016.3
20260905041812 89 45 8.0 10.0 0.00 0.00 0.00 20 1016.4
20260905041311 89 0 4.0 14.0 0.00 0.00 0.00 19 1016.4
20260905041148 89 0 13.0 14.0 0.00 0.00 0.00 20 1016.5
20260905041046 89 270 3.0 24.0 0.00 0.00 0.00 20 1016.5
20260905040754 89 315 12.0 24.0 0.00 0.00 0.00 20 1016.6
20260905040631 89 22 21.0 21.0 0.00 0.00 0.00 20 1016.5
20260905040518 89 22 9.0 26.0 0.00 0.00 0.00 20 1016.6
20260905040416 89 33 19.0 26.0 0.00 0.00 0.00 19 1016.7
20260905040316 89 112 7.0 26.0 0.00 0.00 0.00 20 1016.7
20260905040112 89 67 15.0 15.0 0.00 0.00 0.00 20 1016.8
20260905035652 89 202 3.0 9.0 0.00 0.00 0.00 21 1016.7
20260905035219 89 157 11.0 11.0 0.00 0.00 0.00 21 1016.9
20260905035056 89 292 2.0 10.0 0.00 0.00 0.00 21 1016.9
20260905034554 88 303 3.0 9.0 0.00 0.00 0.00 21 1017.0
20260905034051 88 67 6.0 10.0 0.00 0.00 0.00 21 1017.1
20260905033548 88 11 4.0 14.0 0.00 0.00 0.00 21 1017.2
20260905033258 88 22 14.0 14.0 0.00 0.00 0.00 21 1017.2
20260905032825 88 247 4.0 8.0 0.00 0.00 0.00 22 1017.2
20260905032323 88 180 1.0 10.0 0.00 0.00 0.00 22 1017.4
20260905031950 88 0 10.0 10.0 0.00 0.00 0.00 22 1017.4
20260905031449 88 22 4.0 10.0 0.00 0.00 0.00 22 1017.6
20260905030947 88 0 2.0 5.0 0.00 0.00 0.00 23 1017.8
20260905030443 87 0 1.0 10.0 0.00 0.00 0.00 23 1017.9
20260905030023 87 112 9.0 9.0 0.00 0.00 0.00 22 1017.9
20260905025559 87 180 1.0 10.0 0.00 0.00 0.00 23 1018.1
20260905025416 87 348 10.0 10.0 0.00 0.00 0.00 23 1018.1
20260905024915 87 45 7.0 14.0 0.00 0.00 0.00 23 1018.2
20260905024412 87 90 7.0 11.0 0.00 0.00 0.00 23 1018.2
20260905023910 86 0 2.0 18.0 0.00 0.00 0.00 23 1018.3
20260905023608 86 0 10.0 12.0 0.00 0.00 0.00 23 1018.4
20260905023106 86 45 6.0 16.0 0.00 0.00 0.00 24 1018.6
20260905022814 86 90 14.0 16.0 0.00 0.00 0.00 24 1018.4
20260905022341 86 101 5.0 19.0 0.00 0.00 0.00 24 1018.5
20260905022241 86 90 15.0 19.0 0.00 0.00 0.00 24 1018.6
20260905021833 85 45 14.0 14.0 0.00 0.00 0.00 25 1018.9
20260905021512 85 315 1.0 12.0 0.00 0.00 0.00 25 1018.8
20260905021227 85 225 1.0 10.0 0.00 0.00 0.00 25 1018.9
20260905020725 85 45 6.0 9.0 0.00 0.00 0.00 25 1019.0
20260905020223 85 0 8.0 12.0 0.00 0.00 0.00 25 1019.1
20260905015722 85 0 6.0 11.0 0.00 0.00 0.00 25 1019.2
20260905015218 84 45 8.0 11.0 0.00 0.00 0.00 25 1019.3
20260905014716 85 33 11.0 11.0 0.00 0.00 0.00 25 1019.5
20260905014533 85 22 2.0 4.0 0.00 0.00 0.00 27 1019.5
20260905013817 84 0 11.0 11.0 0.00 0.00 0.00 27 1019.7
20260905013555 84 0 2.0 7.0 0.00 0.00 0.00 28 1019.7
20260905013052 83 0 3.0 9.0 0.00 0.00 0.00 27 1019.9
20260905012551 83 45 3.0 9.0 0.00 0.00 0.00 27 1019.9
20260905012047 83 22 3.0 12.0 0.00 0.00 0.00 28 1020.0
20260905011546 83 0 5.0 8.0 0.00 0.00 0.00 27 1020.1
20260905011044 83 45 7.0 9.0 0.00 0.00 0.00 27 1020.2
20260905010542 83 90 5.0 8.0 0.00 0.00 0.00 27 1020.2
20260905010039 82 112 9.0 9.0 0.00 0.00 0.00 27 1020.2
20260905005537 82 67 10.0 10.0 0.00 0.00 0.00 27 1020.4
20260905005033 82 0 5.0 10.0 0.00 0.00 0.00 27 1020.4
20260905004532 82 45 7.0 10.0 0.00 0.00 0.00 27 1020.4
20260905004029 81 90 5.0 11.0 0.00 0.00 0.00 27 1020.6
20260905003527 81 0 6.0 9.0 0.00 0.00 0.00 26 1020.7
20260905003026 81 315 3.0 4.0 0.00 0.00 0.00 28 1020.7
20260905002524 80 78 5.0 10.0 0.00 0.00 0.00 27 1020.8
20260905002022 80 0 8.0 9.0 0.00 0.00 0.00 28 1020.9
20260905001518 79 22 3.0 9.0 0.00 0.00 0.00 28 1020.9
20260905001015 79 45 7.0 7.0 0.00 0.00 0.00 29 1021.0
20260905000514 78 90 6.0 6.0 0.00 0.00 0.00 30 1021.1
20260905000012 78 0 5.0 5.0 0.00 0.00 0.00 33 1021.2
20260904235509 78 45 4.0 9.0 0.00 0.00 0.00 32 1021.3
20260904235006 78 45 6.0 8.0 0.00 0.00 0.00 33 1021.4
20260904234505 77 0 6.0 8.0 0.00 0.00 0.00 33 1021.5
20260904234005 77 90 8.0 9.0 0.00 0.00 0.00 33 1021.5
20260904233501 77 0 2.0 7.0 0.00 0.00 0.00 34 1021.5
20260904232958 76 22 5.0 8.0 0.00 0.00 0.00 34 1021.5
20260904232453 76 45 8.0 8.0 0.00 0.00 0.00 35 1021.6
20260904231952 76 0 7.0 8.0 0.00 0.00 0.00 37 1021.6
20260904231449 75 11 5.0 7.0 0.00 0.00 0.00 38 1021.7
20260904230947 75 45 5.0 9.0 0.00 0.00 0.00 39 1021.7
20260904230444 74 22 4.0 8.0 0.00 0.00 0.00 40 1021.8
20260904225941 73 33 5.0 6.0 0.00 0.00 0.00 41 1021.8
20260904225439 73 135 2.0 5.0 0.00 0.00 0.00 46 1022.1
20260904224937 72 90 6.0 6.0 0.00 0.00 0.00 45 1022.0